Theta_e
342 349 356 353 352 352 351 351 350 350 350 351 350 351 351 351 351 351 351 350 349 348 347 347 347 347 348 348 349 351 348 345 345 347 352 347 350 352 353 353 352 353 358
345 348 356 354 353 352 351 351 351 351 352 352 352 353 352 352 350 350 349 349 349 349 350 349 347 348 348 348 349 350 350 349 347 345 346 351 347 353 354 353 353 353 356
343 348 349 356 354 352 352 352 352 354 353 352 352 352 352 351 350 349 349 349 349 349 349 349 349 349 349 348 349 350 350 350 350 349 347 338 342 348 354 354 351 353 353
337 337 347 356 355 353 352 351 352 352 352 353 352 352 352 351 350 349 349 349 349 349 349 348 348 349 349 349 349 350 350 350 350 350 341 338 335 349 357 356 352 352 352
343 337 342 357 356 355 353 352 352 353 354 353 350 350 350 350 349 348 347 346 345 345 346 348 348 347 347 347 348 349 350 350 350 348 339 331 329 349 357 357 354 351 349
335 341 344 358 357 356 355 354 352 351 352 350 349 349 348 348 346 346 342 339 338 340 341 344 345 346 346 346 346 347 347 348 349 338 337 331 344 355 356 354 354 353 351
341 345 348 359 358 356 354 352 352 351 350 349 348 346 346 344 342 341 336 335 333 334 335 336 338 339 340 342 344 346 347 347 341 337 336 332 334 354 353 352 354 354 350
347 347 349 356 357 354 354 353 351 349 346 344 344 344 344 341 338 335 333 332 331 331 332 333 334 335 337 338 339 341 345 347 342 336 335 333 347 351 351 349 351 351 350
321 328 347 349 351 354 352 351 346 344 343 342 343 344 342 341 339 333 330 331 331 332 333 333 334 336 339 340 339 340 341 346 338 337 337 334 350 350 349 348 349 350 351
319 323 322 342 346 344 344 347 347 344 342 342 338 339 340 343 343 338 336 331 331 332 333 337 340 342 342 341 343 345 342 345 336 336 335 338 343 346 348 350 351 348 348
321 323 326 328 328 340 341 341 345 344 341 334 330 336 327 322 321 327 330 331 332 333 340 340 340 340 338 334 337 344 342 338 337 335 338 342 340 339 341 345 347 348 348
317 321 326 328 328 327 336 337 332 331 327 323 323 324 322 322 326 329 331 338 335 335 335 337 338 336 329 320 320 327 325 324 327 330 337 341 341 340 342 340 340 343 346
316 321 324 325 326 327 327 325 324 323 325 324 322 323 322 323 321 323 322 321 320 328 322 323 321 321 319 320 320 316 317 317 319 322 329 340 339 339 339 340 342 341 342
316 318 322 324 325 326 325 325 322 321 321 322 321 323 320 321 319 319 321 319 318 318 319 319 319 319 320 320 319 318 316 316 316 318 324 340 338 337 339 339 340 341 341
317 317 321 322 323 323 321 323 322 321 321 322 321 322 321 320 318 318 319 319 317 319 320 317 318 318 320 320 319 319 318 318 318 318 319 334 335 336 336 337 337 339 339
319 317 320 321 321 323 321 321 319 320 320 322 321 320 322 319 317 318 319 317 317 318 316 315 316 317 317 318 319 318 317 319 317 317 320 322 337 335 333 334 335 338 335
320 318 317 321 320 319 321 320 318 319 320 320 321 319 321 320 318 318 318 318 317 319 315 315 315 316 317 318 316 315 317 320 319 319 322 324 328 333 331 330 330 333 333
321 319 318 323 321 319 319 320 318 318 319 320 320 319 321 319 320 317 317 316 317 317 315 312 312 313 314 314 313 313 314 318 319 319 319 324 324 326 328 329 327 327 328
322 319 319 319 319 320 320 320 320 318 318 320 319 319 319 320 321 316 316 315 316 316 314 313 312 311 311 312 312 313 313 316 317 320 318 321 322 324 323 326 326 323 324
322 321 319 319 319 320 319 320 319 319 318 319 318 319 319 319 320 316 316 314 315 314 313 311 310 312 310 311 313 312 310 315 317 317 318 321 321 321 321 322 320 319 324
323 320 319 318 318 319 316 315 316 315 316 319 318 320 319 318 319 316 315 313 314 312 310 311 310 309 307 310 307 309 309 314 313 318 318 316 317 319 321 320 320 320 319
323 320 319 319 318 318 320 319 317 317 318 318 319 320 319 318 317 317 315 313 314 311 310 309 308 306 305 307 304 303 300 305 311 311 315 315 315 317 319 320 319 319 319
323 321 319 318 318 317 320 320 319 321 320 315 317 316 318 318 318 317 315 315 313 311 309 308 308 307 304 307 307 308 305 299 305 307 310 313 313 313 314 317 318 319 318
326 323 320 318 319 318 319 319 316 316 312 316 315 316 319 318 317 318 316 315 313 311 309 308 311 309 307 303 305 309 311 310 306 301 306 309 312 313 312 314 315 317 317
325 323 321 319 318 318 319 318 316 314 314 316 315 316 315 317 317 318 316 314 312 311 310 309 310 307 307 306 304 305 309 307 310 303 299 304 308 310 313 313 313 313 317
325 323 321 319 318 319 319 319 316 315 314 314 316 316 313 315 315 315 316 314 313 311 311 311 311 309 307 308 307 306 305 308 307 307 302 302 303 307 311 312 312 312 314
Wind_Speed
5 6 9 8 7 6 6 6 7 6 7 8 8 8 9 9 9 10 10 10 9 8 8 7 7 6 7 9 9 8 7 8 12 12 9 6 4 4 3 2 2 7 5
11 5 7 6 5 5 5 5 6 6 7 8 8 9 10 10 10 10 10 10 10 10 9 8 8 8 8 7 8 9 10 9 7 10 12 10 10 8 6 4 3 6 7
12 9 7 7 5 4 5 5 6 6 6 7 8 9 10 11 11 11 11 12 12 11 11 10 9 9 8 9 10 10 10 11 12 11 10 5 7 12 10 8 5 5 6
8 3 7 8 5 4 3 3 4 4 5 6 8 9 9 10 10 12 12 13 13 13 13 12 11 11 10 9 9 10 12 13 13 15 5 6 8 15 14 11 10 8 7
6 4 4 9 7 6 4 2 2 4 5 7 8 9 9 10 10 10 12 14 14 14 14 13 12 11 11 11 10 11 11 13 15 14 6 7 8 8 18 14 11 10 7
8 6 3 9 8 6 5 4 4 4 6 9 8 8 8 7 8 9 10 12 13 13 13 14 13 12 12 12 12 11 11 12 13 7 9 6 5 8 14 12 9 9 9
6 4 4 7 7 6 6 7 7 8 9 8 8 7 7 6 6 8 9 11 13 12 12 13 12 13 13 13 12 11 11 12 8 7 8 5 8 11 9 9 9 12 10
10 6 5 8 10 7 11 11 11 10 10 9 8 7 6 4 3 4 5 10 12 13 13 12 11 13 13 14 15 13 12 12 9 6 8 5 7 7 8 8 6 7 9
12 9 5 6 8 10 13 13 13 13 10 8 8 12 9 5 4 2 1 7 9 10 11 12 12 12 12 13 14 14 14 13 6 4 8 3 7 9 8 8 10 9 10
9 9 8 5 5 5 6 13 14 13 11 14 15 17 16 3 7 10 1 6 8 10 11 13 15 14 15 17 14 15 12 14 6 6 3 2 9 8 10 10 10 10 8
8 8 8 8 5 5 6 7 10 13 16 14 11 17 12 5 7 10 3 5 8 10 9 14 16 12 16 15 14 15 6 4 5 1 2 8 6 5 5 8 10 8 8
7 6 7 8 8 6 4 5 4 7 7 4 7 7 6 6 8 12 11 16 15 17 18 17 17 13 11 5 6 8 3 4 3 3 2 7 6 5 8 8 8 8 9
5 6 8 7 7 8 7 4 3 4 4 4 7 6 6 4 5 5 4 4 5 12 6 7 6 4 7 5 6 4 4 3 2 3 4 5 5 6 7 9 12 11 8
7 6 7 8 6 7 4 4 4 3 4 3 4 6 5 3 5 5 5 5 4 4 7 5 4 9 8 7 6 5 4 4 3 2 4 7 6 4 7 8 11 13 11
7 6 6 7 7 5 6 4 3 3 4 4 5 5 3 4 5 5 6 4 5 5 6 5 7 8 10 12 9 6 6 6 5 3 2 7 1 4 7 10 12 11 11
6 6 5 7 6 5 3 5 4 4 4 5 4 4 6 4 4 4 5 4 5 4 4 5 7 7 8 9 11 8 7 8 4 3 3 4 0 6 5 10 14 8 4
5 5 6 4 5 5 5 4 3 3 3 5 4 6 7 4 6 6 4 5 5 4 5 6 7 8 8 9 10 8 8 12 5 4 4 4 5 5 4 7 8 6 5
7 7 5 5 4 2 2 2 2 1 1 4 4 5 6 6 7 6 4 5 6 4 4 5 5 7 7 6 7 7 6 10 4 6 5 4 3 3 5 5 8 4 3
8 8 5 5 4 4 4 3 4 2 2 4 4 4 5 5 6 5 4 5 6 4 5 5 4 3 6 7 7 6 7 5 5 6 7 4 4 4 2 3 5 1 5
9 8 7 4 3 5 1 3 2 2 4 3 4 4 6 4 6 5 5 5 5 4 5 4 5 6 5 7 8 7 4 3 5 6 6 5 5 6 4 4 3 2 5
9 8 8 6 3 3 3 3 3 1 2 2 3 6 6 5 5 5 3 5 5 4 3 5 4 5 5 8 5 8 4 4 11 5 4 5 5 5 5 3 2 2 2
10 9 8 7 2 1 2 1 1 3 2 2 3 4 5 6 4 4 3 3 4 4 6 5 5 3 3 4 3 2 5 6 9 6 4 4 5 4 4 4 3 3 3
12 10 9 8 7 2 2 1 2 2 2 3 2 0 2 6 5 5 5 4 5 4 2 3 4 5 3 4 6 3 3 2 6 4 6 5 6 3 4 4 1 2 3
11 11 10 8 7 4 3 2 3 1 2 1 2 2 1 6 5 5 5 5 5 2 3 2 3 2 3 3 5 3 1 3 3 6 4 5 6 5 4 2 1 2 2
14 11 10 9 8 6 4 3 2 2 1 1 2 4 5 4 6 4 5 4 3 1 1 1 3 3 1 1 1 3 3 2 2 2 5 7 4 5 4 3 2 1 3
13 12 10 10 8 8 7 6 5 3 1 2 3 2 2 2 2 3 4 3 1 2 2 1 2 2 1 2 2 2 1 2 3 2 3 4 4 6 5 3 1 2 2
Wind_Direction
116 136 122 116 112 101 84 71 60 48 41 32 26 20 17 13 9 7 4 1 356 352 351 349 347 348 346 345 349 357 0 353 345 345 340 307 284 253 223 201 254 125 109
118 109 116 116 109 99 80 61 51 36 31 24 15 16 15 13 9 9 4 0 354 347 343 337 331 329 328 326 329 332 332 332 328 326 328 324 293 261 241 216 135 122 120
125 159 144 136 116 88 68 50 40 33 25 15 11 10 8 8 7 10 9 6 2 356 352 342 331 322 317 315 316 315 316 318 319 316 310 298 277 268 220 193 193 157 148
86 12 149 140 142 115 92 68 39 26 18 7 9 3 8 11 15 15 10 7 359 356 350 343 341 337 328 318 313 308 307 309 308 308 304 276 268 264 204 183 191 185 181
127 255 168 151 172 158 147 117 60 29 14 11 14 9 18 30 27 23 19 13 5 357 350 350 352 345 336 324 313 309 303 300 302 308 308 285 268 244 180 182 182 193 176
163 215 230 164 173 162 151 103 70 46 26 33 29 29 36 37 40 45 32 20 8 359 353 349 351 346 338 331 322 306 292 293 295 298 301 303 358 182 167 183 175 200 160
175 201 218 166 161 152 112 88 79 71 63 49 43 41 39 41 48 51 36 14 355 351 345 339 335 334 330 325 320 314 299 281 283 279 283 288 279 188 175 196 188 171 172
168 162 134 148 142 133 108 101 90 81 69 60 50 35 24 357 27 54 40 13 11 359 354 347 334 330 321 315 311 308 309 295 281 289 286 308 230 193 199 214 185 186 189
52 100 113 123 120 124 106 111 109 95 79 59 35 7 330 268 287 262 155 12 7 350 345 338 334 325 314 309 305 304 294 297 286 262 279 332 201 190 209 229 235 224 209
45 50 53 122 120 132 127 134 119 111 95 55 26 5 7 9 289 347 267 357 336 324 329 322 325 324 349 357 322 287 280 295 296 277 307 32 16 282 244 223 220 234 227
46 55 40 25 48 140 139 141 120 115 83 62 39 13 12 353 17 346 340 315 308 317 352 350 348 16 2 346 345 3 332 294 287 353 122 50 49 345 332 281 254 241 247
45 54 53 27 21 39 108 134 144 90 88 75 46 16 10 8 13 2 3 8 12 10 1 355 351 3 357 333 334 353 352 334 12 2 46 61 26 354 314 304 294 274 254
56 59 62 43 22 14 17 56 42 54 101 75 59 31 21 13 12 352 343 2 10 359 349 339 344 345 335 327 322 328 352 0 348 336 328 88 41 346 317 301 300 299 250
49 58 61 43 20 25 18 27 68 64 84 88 67 42 32 25 4 352 354 356 6 344 329 339 352 343 329 321 316 325 336 318 319 322 345 3 38 24 2 342 310 280 282
50 35 85 63 25 28 20 7 29 18 72 112 65 43 47 40 8 356 345 348 356 356 350 1 5 353 348 337 324 331 321 315 282 284 305 323 190 73 7 354 344 314 275
74 28 36 88 48 27 33 10 39 21 64 90 66 36 34 47 17 359 343 5 357 5 359 9 2 351 337 338 335 334 333 320 267 295 24 19 274 89 43 16 359 13 43
120 77 36 123 93 49 6 53 49 1 46 95 88 47 33 43 20 6 351 12 353 24 1 20 2 355 346 336 340 337 341 326 331 38 61 63 50 70 36 38 45 22 348
122 109 87 34 71 70 16 301 123 359 74 87 90 65 29 41 29 11 10 8 351 42 23 13 359 350 337 332 329 334 330 337 52 48 33 54 42 56 42 24 46 43 347
125 111 102 66 351 331 282 284 196 167 106 125 98 83 49 49 40 25 24 11 6 28 18 10 347 356 341 343 329 332 333 342 17 30 26 36 46 68 39 42 67 184 274
127 125 118 110 336 329 353 27 51 19 80 137 120 103 70 63 54 35 30 15 23 34 7 3 3 355 353 345 329 323 314 308 38 28 10 9 27 36 23 28 342 250 271
137 129 137 111 341 17 30 31 8 358 271 141 108 114 99 83 59 48 50 13 11 64 6 21 337 358 351 345 345 344 351 45 32 357 3 6 0 11 8 5 7 272 270
154 143 129 137 108 22 90 310 220 260 277 108 123 119 133 109 91 73 76 17 31 55 17 19 23 348 328 354 13 333 353 335 1 337 348 351 348 340 343 343 7 13 317
154 148 144 147 153 164 25 326 349 355 14 29 59 150 180 126 103 89 61 48 44 75 32 5 6 33 353 324 5 62 338 331 323 330 346 333 330 329 320 315 72 51 25
160 150 144 146 146 158 98 50 24 139 60 332 173 302 276 126 95 92 74 63 59 104 39 5 10 344 22 350 332 354 168 262 316 330 324 326 327 323 311 311 71 147 135
155 155 149 149 147 154 154 138 98 59 95 282 356 3 31 105 107 102 98 75 51 104 319 30 345 330 25 303 304 320 331 319 311 280 304 329 320 311 308 251 245 234 176
158 151 159 152 164 171 174 181 167 148 226 333 327 349 14 130 160 126 104 86 93 10 12 272 286 287 319 305 280 293 270 302 313 314 298 303 293 303 308 284 278 232 195